map of DEL home
DEL - Airport
Location
City:  New Delhi, Delhi, India
Name:Indira Gandhi International Airport
Old (Alt.):Palam Airport
ICAO:VIDP
IATA:DEL

Details
Type:Airport (Aerodrome, Airfield)
Use:Public/Civil, International (customs port of entry)
Latitude:2834'07"N (28.568728)
Longitude:7706'44"E (77.112136)
Elevation:777 ft (237 m)
Variation:1.19E (WMM2015 magnetic declination)
0.06 annual change
Runways:3
Longest:14534 ft (4430 m), paved

Time
Time Zone:UTC+5:30
Local Time:

Weather
METAR:VIDP 241000Z 06004KT 4000 HZ FEW040 SCT100 38/24 Q0998 NOSIG
TAF:VIDP 240501Z 2406/2512 27004KT 4000 HZ FEW040 SCT100
BECMG 2518/2521 VRB02KT 2500 HZ
BECMG 2604/2606 3500 HZ FEW100

Related Locations
Nearby:
Farthest:IPC: 12034 mi / 19367 km
Easter Island (Isla de Pascua, Rapa Nui) [Mataveri Intl], VS, CL

Find:

   beyond  
but within

Other Information
Maps:
NOTAMs:
Links:
Sources:

  
flag of India   

Sectional Chart

Flight Planning
at skyvector.com

Satellite Image

Google Maps Satellite view

 

Copyright © 2004-2017 Karl L. Swartz. All rights reserved.
The Great Circle Mapper name and logo are trademarks of the Great Circle Mapper.
All other trademarks mentioned herein belong to their respective owners.
Please see credits for attibutions and further copyright information.

  Follow gcmap on Facebook Follow gcmap on Twitter Follow gcmap on Google+ GCmap on LinkedIn

hCard Microformat

Geo Microformat